Location: Frankfurt+am+Main
(50.1100°N, 8.4815°E)
Time: 09:50:38
(UTC+01:00)

N. Korean satellite - Visible Passes

Search period start: 18 February 2018 00:00
Search period end: 28 February 2018 00:00
Orbit: 459 x 514 km, 97.2° (Epoch: 17 February)

Date Brightness Start Highest point End Pass type
(mag) Time Alt. Az. Time Alt. Az. Time Alt. Az.
18 Feb 10.4 05:58:19 10° ENE 05:59:30 11° E 06:00:43 10° ESE visible
19 Feb 10.0 19:21:55 10° SW 19:23:50 14° W 19:25:47 10° NW visible
20 Feb 8.7 06:42:32 10° NNE 06:45:54 34° E 06:49:17 10° SSE visible
20 Feb 9.1 18:56:59 10° SSW 18:59:54 25° W 19:02:51 10° NW visible
21 Feb 9.8 06:19:17 10° NE 06:22:01 19° E 06:24:45 10° SE visible
21 Feb 7.8 18:32:41 10° S 18:36:02 47° W 18:39:26 10° NNW visible
22 Feb 10.5 05:56:54 10° ENE 05:58:03 11° E 05:59:12 10° ESE visible
23 Feb 10.0 19:20:17 10° SW 19:22:19 15° W 19:24:24 10° NW visible
24 Feb 8.8 06:41:02 10° NNE 06:44:25 33° E 06:47:49 10° SSE visible
24 Feb 9.1 18:55:24 10° SSW 18:58:22 26° W 19:01:23 10° NW visible
25 Feb 9.9 06:17:47 10° NE 06:20:31 19° E 06:23:15 10° SE visible
25 Feb 7.7 18:31:07 10° S 18:34:30 49° W 18:37:57 10° NNW visible
26 Feb 10.6 05:55:26 10° ENE 05:56:32 11° E 05:57:36 10° ESE visible
27 Feb 10.0 19:18:36 10° SW 19:20:45 15° W 19:22:57 10° NW visible
